Regional Weather Roundup
Issued by NWS

Home | Current Version | Previous Version | Graphics & Text | Print | Product List | Glossary On
Versions: 1 2 3 4 5 6 7 8 9 10 11 12 13 14 15 16 17 18 19 20 21 22 23 24 25 26 27 28 29 30 31 32 33 34 35 36 37 38 39 40 41 42 43 44 45 46 47 48 49 50
000
ASUS43 KDMX 060807
RWRIA

WEATHER ROUNDUP FOR IOWA
NATIONAL WEATHER SERVICE DES MOINES IA
200 AM CST FRI MAR 06 2015

NOTE: "FAIR" INDICATES FEW OR NO CLOUDS BELOW 12,000 FEET WITH NO
SIGNIFICANT WEATHER AND/OR OBSTRUCTIONS TO VISIBILITY.

* - THESE STATIONS ARE NOT NWS STATIONS...THUS NOT UNDER NWS
QUALITY CONTROL.  THEY ALSO DO NOT REPORT WEATHER SUCH
AS PRECIPITATION OR FOG.

IAZ001>003-012>014-020>022-031>034-043>046-060900-
   NORTHWEST IOWA

CITY           SKY/WX    TMP DP  RH WIND       PRES   REMARKS
CARROLL *      CLOUDY    23  10  58 S18G24    30.24F WCI   9
CHEROKEE *     CLEAR     21   9  58 S8        30.19F WCI  12
DENISON *      CLOUDY    25  10  54 S17G26    30.20F WCI  11
LE MARS *      CLEAR     21  10  63 S9        30.18F WCI  11
ORANGE CITY *  CLEAR     19   9  63 S12       30.15F WCI   7
SHELDON *      CLEAR     19   9  63 S14       30.14F WCI   6
SIOUX CITY     MOCLDY    26  10  50 S12       30.19F WCI  16
SPENCER        CLEAR     15   6  67 S12       30.17F WCI   2
STORM LAKE *   MOCLDY    19   9  63 S14G21    30.19F WCI   6
$$

IAZ055>058-069>071-079>083-090>094-060900-
   SOUTHWEST IOWA

CITY           SKY/WX    TMP DP  RH WIND       PRES   REMARKS
ATLANTIC *     CLOUDY    25   9  50 S17G23    30.27F WCI  11
AUDUBON *      MOCLDY    25   9  50 S15G22    30.25F WCI  12
CLARINDA *     CLOUDY    25  10  54 S13G20    30.33F WCI  13
COUNCIL BLFS * CLOUDY    23  12  63 SE10      30.23F WCI  12
CRESTON *      CLOUDY    19   9  63 S17       30.32F WCI   4
HARLAN  *      CLOUDY    25  10  54 S18G25    30.27F WCI  11
LAMONI         CLEAR     18   8  65 S12       30.36F WCI   5
RED OAK *      CLOUDY    25  10  54 S14G20    30.29F WCI  13
SHENANDOAH *   CLOUDY    25  12  58 S10       30.31F WCI  15
$$

IAZ047>049-059>061-072>074-084-060900-
   CENTRAL IOWA

CITY           SKY/WX    TMP DP  RH WIND       PRES   REMARKS
AMES           CLOUDY    11   4  73 SE9       30.33F WCI  -2
ANKENY *       CLOUDY    16   5  62 SE10      30.34F WCI   3
CHARITON *     CLOUDY    18   7  62 S14G20    30.36F WCI   4
DES MOINES     CLOUDY    18   6  59 S13       30.34F WCI   5
GRINNELL*      PTCLDY     9   3  78 S12       30.37F WCI  -6
KNOXVILLE *    CLOUDY    14   3  62 S9        30.36F WCI   2
MARSHALLTOWN   CLEAR      6   0  76 SE10      30.34F WCI  -9
PELLA *        CLEAR     14   9  79 S10       30.39F WCI   1
PERRY *          N/A     18  10  73 S10       30.30F WCI   6
$$

IAZ004>006-015-016-023>025-035-036-060900-
   NORTH CENTRAL IOWA

CITY           SKY/WX    TMP DP  RH WIND       PRES   REMARKS
ALGONA *       MOCLDY    14  12  92 S18       30.22F WCI  -3
CLARION *      CLOUDY    12   5  73 S20       30.26F WCI  -6
ESTHERVILLE    CLEAR     12   5  73 S14       30.17F WCI  -3
FORT DODGE *   MOCLDY    18   3  53 S15       30.26F WCI   3
MASON CITY     CLEAR      1  -4  79 S13       30.28F WCI -17
FOREST CITY *  MOCLDY    10   1  67 SE9       30.24F WCI  -2
IOWA FALLS *     N/A      7   0  72 SE14      30.31F WCI -10
$$

IAZ007>011-017>019-026>030-037>042-050>054-066-060900-
   NORTHEAST IOWA

CITY           SKY/WX    TMP DP  RH WIND       PRES   REMARKS
CEDAR RAPIDS   PTCLDY     4  -1  80 S8        30.40F WCI  -9
CHARLES CITY * CLEAR      3  -4  72 S13       30.32F WCI -14
CLINTON *      MOCLDY     1  -4  78 SE7       30.49F WCI -11
DECORAH *      CLEAR      3  -6  66 S7        30.32F WCI  -9
DUBUQUE        MOCLDY    -3  -9  75 S10       30.40F WCI -20
MONTICELLO *   CLEAR     -4  -9  77 S5        30.43F WCI -15
OELWEIN *      CLEAR      0  -8  71 S13       30.36F WCI -18
WATERLOO       PTCLDY     4  -3  73 S12       30.36F WCI -12
$$

IAZ064-065-067-068-078-060900-
   EAST CENTRAL IOWA

CITY           SKY/WX    TMP DP  RH WIND       PRES   REMARKS
DAVENPORT      PTCLDY     2  -5  72 S9        30.47F WCI -13
IOWA CITY      PTCLDY     3  -2  79 SE5       30.46F WCI  -6
MT. PLEASANT * CLEAR      7   0  72 S9        30.46F WCI  -7
MUSCATINE *    CLEAR      5   1  85 SE3       30.49F
QUAD CITIES    MOCLDY     3  -5  69 E3        30.49F
$$

IAZ062-063-075>077-085>089-095>099-060900-
   SOUTHEAST IOWA

CITY           SKY/WX    TMP DP  RH WIND       PRES   REMARKS
BURLINGTON     CLEAR      5  -1  76 S8        30.48F WCI  -8
FAIRFIELD *    CLEAR     10   1  67 S12       30.43F WCI  -4
FORT MADISON * CLEAR      9   1  72 S12       30.47F WCI  -6
KEOKUK *       CLEAR      9   3  78 SE7       30.47F WCI  -3
OSKALOOSA *      N/A     10   5  79 S8        30.41S WCI  -1
CENTERVILLE *  CLEAR     14   7  73 S9        30.41S WCI   2
OTTUMWA        CLEAR     11   3  70 S9        30.41F WCI  -2
WASHINGTON *   CLEAR      9   3  78 S12       30.43F WCI  -6
$$

ABBREVIATIONS USED IN REMARKS
   TC - TEMPERATURES IN CELSIUS
  WCI - WIND CHILL INDEX
   HX - HEAT INDEX
  VSB - VISIBILITY
$$



USA.gov is the U.S. government's official web portal to all federal, state and local government web resources and services.